Temp
10 10 10 10 10 9 9 9 9 9 9 9 9 10 10 9 9 11 13 13 11 12 13 14 14 16 16 17 17 15 17 19 21 23 25 23 24 25 26 25 25 26 26 24 19
9 9 9 10 9 9 9 9 9 9 9 9 9 9 9 9 10 11 13 11 10 12 13 15 17 18 17 17 17 15 16 18 23 24 24 23 25 25 23 24 23 23 24 21 18
9 9 9 9 9 9 9 9 9 9 9 9 9 9 9 9 11 14 11 10 10 11 13 14 17 18 16 17 18 18 16 18 22 22 22 23 24 26 24 24 24 23 24 20 19
9 9 9 9 9 9 9 9 9 9 9 9 9 9 9 10 10 13 11 10 10 11 12 13 14 16 15 16 18 18 19 19 19 22 20 17 24 25 25 26 26 25 25 21 19
9 9 9 8 8 8 8 8 8 9 9 8 8 8 9 10 11 12 12 12 10 10 11 12 13 14 15 17 18 18 20 21 21 17 18 21 22 24 25 26 24 26 24 20 20
8 8 8 8 8 8 8 8 8 8 8 8 8 8 9 8 13 12 12 10 10 10 11 11 12 15 16 16 18 19 19 21 22 17 16 17 20 23 25 25 23 24 22 20 20
8 8 8 7 8 8 8 8 8 8 8 8 8 10 11 11 12 12 12 12 11 11 10 11 11 10 14 17 19 20 18 19 21 19 16 16 16 21 24 24 23 23 23 21 19
8 7 7 7 7 7 7 7 7 8 8 8 8 10 11 12 11 12 12 12 12 12 11 10 11 10 10 16 18 17 17 16 20 21 18 15 15 18 23 24 24 23 24 22 20
8 7 7 7 7 7 7 8 8 8 8 9 10 11 13 12 13 12 12 12 13 12 11 10 9 10 10 13 15 16 17 17 19 21 18 15 16 18 21 22 24 24 24 23 19
7 7 7 7 6 6 7 9 10 9 10 10 11 11 13 12 12 11 11 12 12 13 11 10 9 8 9 11 13 16 17 19 19 21 20 16 16 16 18 22 23 24 23 22 16
7 7 7 6 6 6 8 10 11 12 9 10 11 11 12 12 12 13 13 12 13 12 11 12 9 10 10 10 15 18 19 19 21 22 21 19 17 16 17 18 22 22 23 20 18
7 6 6 6 6 7 9 9 7 6 6 10 11 11 11 11 11 13 12 11 12 11 13 11 10 14 14 12 10 16 18 17 21 22 21 20 18 19 16 15 20 19 22 19 16
6 6 6 6 7 8 8 7 6 6 6 10 12 12 12 11 11 12 12 12 11 10 12 12 13 15 14 13 10 12 17 18 19 21 21 20 18 18 18 15 16 20 22 20 17
6 6 6 7 8 8 9 6 6 6 7 12 12 12 12 13 11 13 12 11 10 10 11 11 14 13 13 13 11 11 15 15 16 17 17 19 17 18 16 15 17 20 21 20 17
6 5 5 6 7 9 7 6 6 7 9 12 12 12 13 12 12 11 11 10 8 9 10 11 12 12 12 13 13 12 15 14 15 13 16 16 16 20 18 16 16 20 22 21 20
5 5 6 8 8 7 6 5 6 8 9 10 12 11 11 12 12 12 10 9 9 8 10 11 12 11 13 13 14 13 13 11 14 14 14 14 16 19 18 19 19 20 22 20 21
7 7 6 7 8 6 5 8 8 9 12 10 9 10 10 11 12 11 8 8 8 8 8 11 11 12 13 12 14 12 9 12 13 13 14 18 16 19 21 22 22 22 22 20 21
7 7 6 6 6 5 7 8 9 9 9 10 9 10 11 11 10 10 10 10 8 7 8 9 11 12 13 12 13 10 11 11 14 14 16 16 14 19 21 22 23 23 22 21 19
7 8 8 7 5 6 9 8 7 8 8 7 9 10 10 11 9 9 9 8 8 6 7 8 10 14 14 14 14 12 10 12 12 15 16 17 19 20 21 21 22 22 22 22 19
8 9 8 6 6 8 7 7 8 8 8 7 7 9 8 9 8 8 9 8 6 7 5 7 9 12 14 14 14 14 14 11 12 14 15 19 19 20 19 20 21 21 22 22 20
8 11 8 6 7 9 7 6 7 9 8 7 7 6 8 8 7 7 8 10 9 8 7 7 8 9 12 12 13 12 11 14 15 15 14 17 19 20 20 21 20 20 22 22 20
9 8 7 7 7 5 7 7 7 8 9 8 8 8 7 7 7 7 8 9 10 9 6 6 6 10 11 14 15 14 14 14 14 14 13 13 14 17 16 18 19 20 20 21 21
7 8 7 8 6 6 7 7 7 7 7 7 7 7 8 7 6 8 9 10 10 8 6 6 8 10 9 10 13 12 12 13 13 16 14 14 17 17 16 15 16 18 18 18 18
6 6 6 4 3 4 4 6 6 8 7 7 7 8 7 5 7 6 7 9 8 8 8 6 7 9 9 10 12 10 10 12 14 15 16 16 17 16 16 16 15 15 16 17 15
6 4 4 5 5 4 3 4 6 5 6 7 7 7 6 3 4 6 7 6 7 8 7 6 7 8 10 10 13 12 9 9 10 14 16 16 15 15 14 15 15 14 14 15 16
5 5 5 5 5 3 2 5 4 5 5 5 6 6 6 5 5 4 5 4 4 7 4 6 8 8 9 11 13 12 11 11 10 11 16 15 13 15 14 15 14 14 13 13 14
4 4 5 4 4 4 4 4 3 4 5 6 5 5 4 6 6 6 6 5 5 4 4 5 6 8 9 11 11 10 10 10 7 8 10 13 12 14 12 11 10 12 13 13 12
Height
817 813 810 805 802 799 796 793 790 787 784 782 778 776 772 768 764 760 755 753 750 746 749 749 748 744 744 742 741 742 744 731 726 720 713 715 723 716 722 727 728 728 727 733 741
816 812 807 804 802 798 796 791 787 784 781 778 775 772 770 766 762 753 750 750 747 738 744 741 739 739 738 737 737 741 737 730 711 710 715 716 713 715 728 729 728 732 733 737 744
814 810 807 803 799 796 792 787 783 780 778 774 771 769 768 765 758 736 741 750 746 742 742 741 735 732 738 734 728 727 730 729 715 714 715 711 715 706 720 725 719 727 731 739 743
813 810 805 801 798 793 790 786 781 778 774 770 768 766 765 763 752 740 743 740 745 744 742 741 738 733 736 731 723 725 717 724 724 712 716 733 712 710 711 710 710 717 724 737 743
812 808 804 799 794 792 788 783 777 774 770 767 764 762 761 757 748 744 744 742 745 746 745 744 737 735 729 722 718 719 710 707 714 723 724 720 714 710 709 707 714 713 718 734 742
810 807 802 798 794 790 785 779 772 769 765 762 760 758 757 754 741 742 742 743 744 746 746 746 741 734 725 723 714 708 711 705 706 721 731 727 719 710 704 705 715 716 720 732 740
810 805 801 796 791 786 781 775 769 766 762 759 757 754 751 746 741 741 739 739 741 741 744 745 745 747 731 717 712 706 713 710 703 713 728 729 733 711 703 706 713 716 718 729 739
809 804 799 794 789 785 777 771 766 763 759 757 756 753 745 742 742 740 738 736 736 737 739 744 746 747 743 719 707 713 714 721 700 703 719 732 736 725 704 707 710 714 717 725 736
807 803 798 794 788 782 775 766 762 759 756 754 753 750 738 742 739 739 737 736 734 734 736 741 747 743 741 726 718 712 708 709 703 693 714 730 728 721 710 707 707 710 716 723 737
807 802 798 792 787 781 773 765 759 757 755 752 751 752 742 741 740 739 736 735 734 732 735 739 742 740 737 729 714 705 702 692 697 690 700 721 722 723 716 706 706 706 714 721 738
806 801 796 791 785 780 774 763 761 755 759 756 754 751 743 742 740 734 732 731 731 731 728 725 735 727 731 730 707 695 689 689 682 681 692 704 715 723 718 715 704 707 709 725 734
805 800 794 788 784 780 776 773 781 781 771 755 750 749 747 746 739 730 733 731 726 725 716 725 719 708 711 719 729 701 692 697 679 676 684 696 708 706 722 725 707 713 707 724 735
804 798 792 787 782 781 780 781 780 778 775 751 747 745 744 746 737 732 733 729 727 725 713 711 705 698 706 710 721 713 693 691 688 679 682 695 705 707 710 724 726 710 706 719 729
802 797 793 787 784 781 778 780 778 777 770 743 741 742 742 738 732 730 732 733 730 722 717 714 702 704 705 706 720 719 700 705 700 696 697 694 706 701 711 720 717 710 707 713 725
801 796 792 787 785 781 783 780 778 777 752 745 744 746 740 737 735 731 735 733 734 729 723 712 705 704 706 705 707 713 701 710 706 714 700 701 709 679 696 713 719 703 700 707 714
799 794 788 786 784 785 781 779 778 768 753 749 744 747 740 733 729 729 732 736 733 732 722 714 710 711 701 702 703 711 716 722 711 706 706 702 700 682 688 684 691 698 696 706 708
796 791 788 789 787 783 779 776 767 756 750 757 755 750 743 733 727 728 735 734 734 730 721 703 700 701 702 702 699 713 730 711 712 709 695 681 700 679 666 668 674 681 688 701 707
794 790 789 788 786 781 778 774 765 769 762 761 759 748 738 735 736 734 729 724 733 735 725 710 696 690 690 694 695 713 714 704 685 684 685 692 698 672 665 664 666 670 680 695 707
792 792 790 789 783 780 775 771 780 775 776 775 759 748 741 737 748 740 734 737 738 743 738 719 698 682 683 686 688 699 709 696 700 673 677 677 669 666 663 663 667 668 674 685 697
795 792 792 787 781 779 783 785 782 780 780 779 772 760 758 748 752 748 736 740 744 742 748 729 712 689 681 685 683 687 689 714 700 680 679 660 664 664 665 667 667 671 672 680 691
793 788 793 786 782 782 789 793 786 782 781 782 778 776 765 759 759 753 744 731 732 736 738 730 715 703 688 684 681 691 698 687 683 678 685 667 664 656 658 659 666 670 670 675 687
794 794 794 786 791 796 791 794 794 786 782 779 776 772 770 766 760 756 747 736 730 736 739 732 727 695 688 677 675 680 682 685 685 685 691 699 690 673 677 675 673 672 673 675 684
799 797 795 789 795 794 789 789 789 789 788 784 781 777 771 772 771 750 742 736 734 739 741 736 716 689 692 696 681 686 689 685 687 674 684 696 675 678 682 685 685 682 681 684 688
804 800 800 804 812 809 803 793 790 785 787 786 783 776 776 777 766 761 750 741 741 737 735 737 719 704 693 685 678 695 692 690 684 679 678 681 680 685 686 686 689 691 691 692 699
808 812 811 806 805 812 814 806 794 792 788 784 780 779 782 788 778 762 753 749 741 731 737 736 720 706 691 687 673 681 700 704 704 680 679 685 689 693 694 692 693 696 697 697 699
812 811 812 809 810 813 815 804 802 799 799 790 785 784 781 781 774 768 764 765 755 737 745 734 713 706 693 679 671 679 692 698 707 700 678 689 697 697 698 696 697 699 702 705 708
816 817 813 813 809 808 809 810 807 802 795 791 788 786 783 773 771 765 760 757 754 754 751 742 726 709 689 677 678 696 703 706 722 720 712 694 707 703 710 715 717 708 707 711 713
Wind_Speed
19 20 20 19 20 20 20 20 21 23 22 22 21 21 22 22 23 25 20 15 16 26 21 25 19 17 13 16 16 3 11 15 29 27 20 11 9 15 12 10 4 6 3 7 19
19 20 19 20 20 20 21 22 23 23 22 22 22 22 21 21 24 27 23 12 18 12 22 19 15 17 14 16 10 7 12 19 26 20 16 9 15 17 10 16 10 7 2 16 17
19 19 19 20 22 20 23 23 24 25 25 25 23 21 20 20 17 11 17 7 15 10 15 21 20 14 17 16 22 13 21 21 19 20 8 10 13 15 19 19 15 16 12 13 18
20 20 21 21 22 22 24 24 27 26 26 25 23 21 19 16 7 14 15 16 18 14 6 9 13 19 16 22 23 23 25 25 11 17 10 9 14 17 16 20 10 11 13 15 17
20 21 21 22 23 25 25 26 27 27 27 25 23 19 16 9 18 23 19 18 10 12 10 5 16 19 22 17 22 24 25 24 25 12 18 19 20 11 17 11 1 13 15 16 16
20 22 24 24 25 26 26 27 28 27 25 23 19 15 12 13 11 8 9 5 6 7 9 6 7 13 19 25 20 13 22 25 17 13 14 5 19 14 12 13 7 9 18 16 16
21 22 23 24 24 25 27 28 29 26 24 17 13 10 9 15 14 14 12 14 13 14 10 10 7 7 11 19 23 16 17 21 26 21 14 4 16 17 17 12 12 11 13 16 15
20 22 23 25 25 26 29 29 27 25 18 10 15 10 8 6 8 8 7 6 4 8 13 10 4 5 5 14 12 22 17 15 24 19 12 12 9 19 18 13 14 13 15 17 19
21 23 24 26 25 27 27 30 26 15 10 13 2 4 1 3 4 11 9 10 7 5 6 10 5 5 6 13 16 12 17 25 20 25 13 16 10 16 20 13 14 14 13 16 14
22 24 25 26 26 27 24 27 17 9 18 1 2 5 2 9 14 15 16 11 11 6 6 7 7 4 5 11 15 18 25 22 23 20 24 18 17 9 11 14 17 15 15 15 13
23 24 25 25 25 21 21 15 7 1 12 6 12 10 13 16 18 9 11 7 11 9 11 15 7 10 11 11 22 23 20 26 21 21 19 22 19 20 19 9 16 14 16 14 12
23 23 24 24 23 13 14 7 8 7 9 13 7 9 11 8 12 7 2 4 4 11 10 5 14 17 16 11 14 27 21 18 20 19 20 20 20 17 23 13 14 12 14 16 13
23 23 23 23 11 9 8 12 11 5 5 7 6 8 6 6 11 14 4 6 9 13 13 14 13 11 17 16 8 11 22 20 19 16 16 14 16 20 22 22 24 12 15 17 17
22 24 22 24 6 12 4 17 11 1 3 4 2 2 8 14 8 4 4 5 4 9 10 11 15 14 12 18 9 7 17 16 19 12 15 16 8 18 15 10 18 20 14 16 16
24 25 21 12 10 7 11 16 6 3 4 10 5 4 14 8 12 1 5 5 9 10 5 4 6 11 16 15 14 6 8 11 20 15 14 14 9 11 20 18 16 21 20 18 19
26 25 15 4 6 9 16 10 2 3 4 6 7 16 18 10 11 4 3 1 4 6 12 17 11 7 12 15 15 6 12 13 17 13 8 9 13 13 18 26 25 25 20 20 19
26 17 5 6 8 18 12 4 3 2 12 11 13 19 17 15 8 9 5 4 3 5 5 9 15 17 11 13 17 16 6 5 8 9 5 16 11 14 11 18 21 24 22 20 19
24 6 3 5 16 11 7 2 3 5 12 15 17 16 7 13 13 16 14 8 2 8 5 6 4 15 16 18 17 11 14 6 3 9 12 8 8 10 21 6 15 20 21 19 16
12 3 4 15 13 7 3 2 5 9 11 13 18 9 12 13 10 9 8 7 8 9 7 6 5 4 6 14 20 13 12 17 7 2 10 9 9 5 8 12 12 19 20 22 23
8 2 8 20 11 5 2 3 5 6 10 8 7 9 15 16 12 15 7 3 6 4 9 5 6 7 11 11 16 12 12 6 6 5 6 11 13 5 15 13 17 16 20 21 22
5 2 10 19 6 4 3 5 6 8 9 6 8 9 14 15 18 11 6 7 13 13 14 6 4 2 4 13 15 9 5 8 6 2 2 4 6 8 5 11 15 17 19 21 21
5 2 14 15 4 2 5 6 7 8 7 4 7 8 11 20 10 7 7 9 15 19 12 4 6 5 14 7 16 17 13 12 8 6 2 2 2 3 4 2 3 11 13 16 18
2 2 9 12 3 4 7 3 5 10 9 7 6 6 10 12 7 11 13 13 11 22 5 8 4 4 5 5 11 11 7 10 4 8 7 2 1 3 4 5 4 6 8 7 7
2 2 3 3 3 5 7 5 8 8 7 9 9 9 13 14 9 12 14 9 25 15 6 14 4 5 8 4 9 7 12 11 8 8 8 6 4 7 5 4 5 6 6 10 9
4 1 3 4 4 6 4 4 11 10 5 9 4 11 15 5 16 6 19 23 11 6 14 6 5 10 14 8 12 18 12 8 5 7 9 7 11 10 8 6 5 5 6 7 10
2 3 0 2 5 5 1 5 10 12 8 9 9 17 16 13 14 20 19 16 11 7 10 5 4 14 5 9 15 13 13 9 3 7 12 16 14 11 11 11 11 9 8 6 6
3 2 2 2 3 4 3 6 9 13 7 7 15 19 16 14 18 23 22 20 17 18 9 5 6 7 3 4 14 11 9 9 3 5 5 11 7 9 13 15 15 15 12 8 6
Wind_Direction
345 342 338 339 336 333 329 328 325 324 321 318 315 313 315 317 311 292 278 297 319 265 260 258 262 254 228 224 221 225 229 224 222 220 242 131 191 191 198 216 205 189 319 46 133
341 338 335 333 330 328 326 324 321 319 318 315 314 315 317 318 307 291 275 298 320 245 231 228 231 222 223 221 211 203 236 222 233 217 240 186 200 183 189 210 187 212 161 126 143
340 337 335 334 334 331 324 321 318 316 315 314 311 313 315 315 303 296 148 32 7 17 241 238 246 232 228 228 223 230 238 243 244 256 218 234 218 218 203 206 199 192 183 159 161
341 339 335 332 329 322 320 319 316 316 315 314 311 310 306 296 277 29 209 336 348 356 292 258 254 233 223 230 225 223 237 227 257 268 195 260 250 212 214 225 200 180 181 169 181
339 332 334 333 328 325 321 317 314 315 315 311 306 304 298 271 262 286 290 290 302 334 331 331 241 232 217 226 223 227 236 226 227 251 284 208 235 210 218 198 76 201 154 172 188
339 338 332 332 331 325 322 318 312 315 315 308 305 301 272 274 294 311 321 336 270 283 301 290 284 253 246 240 225 228 232 242 221 193 260 244 258 208 220 184 194 189 159 171 195
338 338 337 335 331 326 322 317 314 318 313 309 308 289 250 263 309 316 304 275 261 264 258 257 274 267 321 241 234 239 238 231 239 199 213 145 258 227 219 170 185 187 176 176 188
338 337 338 337 334 329 322 319 319 319 317 314 299 280 271 323 313 298 317 298 271 255 223 217 271 276 279 273 240 223 229 244 224 208 195 162 232 258 221 183 185 181 187 183 185
335 335 336 337 334 330 327 328 323 320 321 318 228 260 310 315 312 323 307 296 303 260 223 202 174 252 273 236 231 220 218 219 221 224 179 189 231 242 243 214 204 183 188 183 167
338 338 335 335 335 332 336 331 324 327 341 227 223 252 224 334 319 311 291 268 274 276 182 182 175 232 205 209 213 213 214 215 221 204 195 190 219 246 289 224 208 190 179 184 148
339 337 334 336 335 338 349 359 5 14 0 335 309 291 299 326 310 296 293 281 244 247 251 209 211 217 213 237 251 222 218 222 213 224 198 208 209 222 262 264 210 214 178 181 168
343 340 337 333 334 1 1 36 31 298 305 298 293 278 284 322 307 334 344 264 250 255 250 232 244 242 238 235 245 247 235 232 236 201 215 203 225 210 197 261 250 210 179 181 147
342 339 335 335 339 346 11 18 335 314 280 290 293 298 321 311 309 300 304 317 285 272 252 245 258 241 230 232 270 254 224 233 227 208 193 223 229 219 192 200 255 245 191 169 172
340 338 337 339 303 337 22 343 337 259 283 38 2 52 311 311 274 277 305 313 283 283 280 264 257 251 248 227 198 255 216 250 275 237 206 205 231 209 188 229 230 231 202 181 170
339 338 332 339 317 339 329 330 332 229 334 357 354 329 319 311 306 68 6 298 274 273 274 267 254 234 236 234 208 256 195 267 253 248 212 203 236 210 191 202 219 239 210 200 174
336 335 334 330 298 334 326 326 227 248 358 353 327 341 335 331 324 302 298 296 289 282 256 262 261 284 233 240 216 218 252 292 263 240 219 180 201 214 183 204 198 217 212 207 199
339 341 17 354 337 327 327 279 276 346 348 348 333 335 321 339 338 347 328 283 266 273 244 262 237 229 239 244 210 192 146 203 197 204 215 193 195 244 194 203 204 208 202 199 194
341 5 356 21 334 327 316 291 319 5 351 336 333 312 333 348 337 342 339 354 96 304 279 298 249 206 209 229 198 195 202 252 182 181 194 150 212 216 222 201 212 210 195 185 173
349 343 17 343 344 334 318 11 356 2 353 334 321 359 349 360 341 335 334 2 25 352 345 313 261 154 232 208 209 200 211 215 297 12 161 172 226 113 185 228 218 198 187 191 172
340 339 17 342 342 307 24 35 338 348 336 338 329 343 328 344 341 334 311 77 339 20 333 281 267 266 201 220 226 210 203 188 247 145 176 194 207 234 180 194 190 192 198 189 160
330 336 355 345 2 34 30 350 323 347 351 335 326 311 323 334 331 331 302 331 7 349 333 278 259 57 241 212 201 191 217 195 255 297 56 152 215 8 154 201 194 204 199 185 176
332 17 350 348 44 29 10 342 331 330 333 318 298 323 336 333 317 319 289 318 340 349 317 335 297 259 218 206 225 203 212 203 192 192 170 2 296 57 53 301 251 187 194 187 177
25 334 2 3 51 4 353 328 345 336 332 342 316 345 326 329 313 307 332 321 319 335 311 359 285 281 164 151 221 223 189 202 290 246 217 256 75 49 112 159 163 156 165 159 179
11 347 35 58 79 354 355 342 346 350 313 329 295 299 343 320 312 296 297 326 327 310 325 315 267 311 305 321 161 181 169 183 212 201 167 223 96 46 49 100 141 143 164 163 171
1 43 9 356 19 350 339 323 337 354 320 323 307 340 336 306 307 263 319 322 319 305 344 340 282 321 303 251 211 168 156 165 203 256 186 151 85 44 22 38 64 113 128 156 167
46 335 57 311 348 334 359 6 329 339 318 310 313 323 319 299 285 295 315 314 293 315 335 322 286 317 273 210 189 167 159 171 289 302 139 119 80 55 51 67 66 64 83 115 147
27 10 322 75 341 326 38 334 318 320 306 304 315 315 310 310 315 294 286 280 269 285 296 288 317 314 21 224 149 140 145 149 106 28 344 100 61 65 65 55 39 38 59 74 103